User: anonymous   Login
Location: Unspecified
(0.0000°N, 0.0000°E)
Time: 20:07:23
(UTC+00:00)
Language:

STARLINK-6193 - Orbit

View from above orbital plane
View from above orbital plane
View from above satellite
View from above satellite

Ground track
Ground track

The orbit is defined by the following mean orbital elements,

1 56904U          26145.62729764 +.00000000 +00000-0 +25907-4 0 00005
2 56904  43.0055 356.2726 0001298 264.4840  95.5863 15.27585181    01
Epoch (UTC): 25 May 2026 15:03:18
Eccentricity: 0.0001298
inclination: 43.0055°
perigee height: 482 km
apogee height: 484 km
right ascension of ascending node: 356.2726°
argument of perigee: 264.4840°
revolutions per day: 15.27585181
mean anomaly at epoch: 95.5863°

The dashed part of the orbit path shows where the satellite is in the earth's shadow,  

DLR